Find Starlink 4390

NORAD ID: 53653 Int'l Des: 2022-105 Owner: SPXS Country: US Constellation: starlink operational
LEOCIRCULARRETROGRADESSO

リアルタイム位置

3D地球を読み込み中...

Starlink 4390について

説明を読み込み中...

次回通過

Passes for default location (London). Set your location on the main map for personalized predictions.

高度履歴

Loading altitude history...

軌道要素

1 53653U 22105F 26126.58335648 .00106827 00000-0 39194-2 0 9993
2 53653 97.6029 8.0032 0002042 78.5020 184.2598 15.27512570 5759
Epoch: May 6, 2026 • Age: 10 hours

現在のステータス

高度 494.7 km
速度 7.62 km/s
衛星直下点 76.63°N, 6.96°W
打ち上げ日 Aug 31, 2022
運用期間 3.6 years
タイプ internet

技術仕様

分類 Payload
質量 300.00 kg
乾燥質量 290.00 kg
総質量 300.00 kg
長さ 0.20 m
直径 2.80 m
スパン 9.00 m
形状 Box + pan
製造者 SPXS
バスタイプ Starlink
フェーズステータス In Orbit
所有者/国 SPXS/US

Most Searched